User: anonymous   Login
Location: Caltech
(34.1382°N, 118.1253°W)
Time: 16:27:29
(UTC-07:00)
Language:

TMSAT-1 - Orbit

View from above orbital plane
View from above orbital plane
View from above satellite
View from above satellite

Ground track
Ground track

The orbit data is extracted from the following two-line orbital elements,

1 25396U 98043C   16244.47510454  .00000009  00000-0  22250-4 0  9990
2 25396  98.5448 189.6420 0003831  89.4116 270.7503 14.24404673942924
Epoch (UTC): 31 August 2016 11:24:09
Eccentricity: 0.0003831
inclination: 98.5448°
perigee height: 808 km
apogee height: 813 km
right ascension of ascending node: 189.6420°
argument of perigee: 89.4116°
revolutions per day: 14.24404673
mean anomaly at epoch: 270.7503°
orbit number at epoch: 94292

The dashed part of the orbit path shows where the satellite is in the earth's shadow,  

DLR